Location: Newark
(34.1333°N, 7.9667°W)
Time: 09:26:43
(UTC+00:00)

COSMOS 2251 DEB - Pass Details

Date: 29 February 2024
Orbit: 726 x 941 km, 73.7° (Epoch: 12 April)

Event Time Altitude Azimuth Distance (km) Brightness Sun altitude
Exits shadow 04:35:56 33° 161° (SSE) 1,496 ? -30.8°
Maximum altitude 04:38:23 54° 103° (ESE) 1,110 ? -30.3°
Drops below altitude 10° 04:44:09 10° 28° (NNE) 2,568 ? -29.1°
Sets 04:46:38 0° 24° (NNE) 3,481 ? -28.6°
